Location: Unspecified
(42.9300°N, 71.1866°W)
Time: 09:40:05
(UTC-05:00)

Cosmos 2058 - Visible Passes

Search period start: 23 January 2017 00:00
Search period end: 02 February 2017 00:00
Orbit: 563 x 587 km, 82.5° (Epoch: 23 January)

Date Brightness Start Highest point End Pass type
(mag) Time Alt. Az. Time Alt. Az. Time Alt. Az.
23 Jan 5.5 04:01:51 18° ESE 04:01:51 18° ESE 04:03:34 10° SE visible
23 Jan 4.1 05:38:10 25° WSW 05:38:10 25° WSW 05:40:41 10° SSW visible
23 Jan 3.6 17:58:01 10° SSW 18:02:03 56° W 18:06:06 10° N visible
24 Jan 5.6 04:06:35 15° SE 04:06:35 15° SE 04:07:27 10° SE visible
24 Jan 4.9 05:42:54 14° SW 05:42:54 14° SW 05:43:40 10° SW visible
24 Jan 4.2 18:01:40 10° SSW 18:05:33 41° WNW 18:09:28 10° N visible
25 Jan 4.8 18:05:24 10° SW 18:09:05 31° WNW 18:12:45 10° NNW visible
26 Jan 5.3 18:09:16 10° SW 18:12:36 24° WNW 18:15:58 10° NNW visible
27 Jan 5.7 18:13:16 10° WSW 18:16:10 18° WNW 18:19:05 10° NNW visible
28 Jan 5.9 18:17:31 10° WSW 18:19:45 14° WNW 18:22:00 10° NW visible
29 Jan 6.1 18:22:20 10° W 18:23:21 11° WNW 18:24:23 10° NW visible
